STARLINK-1585, 46117

Orbit data source: Space-Track

STARLINK-1585, 46117 is a payload satellite owned by SpaceX/Seattle (US) in LEO that was launched on Tue, 18 Aug 2020 UTC via an FALCON 9 launch vehicle from the Air Force Eastern Test Range (AFETR). Payload-class satellites include a variety of spacecraft equipped with specific instruments for various scientific and technological missions. These include communications satellites like Starlink; space stations such as the ISS; scientific satellites like the Hubble; Earth observation satellites from companies like Planet Labs, Umbra, and HawkEye 360; GPS; miniature CubeSats for education and research; and military/defense satellites.

Loading next visibility...
Identifier
46117, 2020-057A
Orbit
LEO
Country
Flag of USUS
Related business
Manufacturer
SpaceX/Seattle
Mission
Partially operational Commercial Communications
Bus & Motor
STARLINK, Unknown motor
Mass
260 kg wet, ~248 kg dry
Launch date (UTC)
2020-08-18 (5 years ago)
Launch vehicle
FALCON 9
Launch site
Air Force Eastern Test Range (AFETR)
Object type
Payload
Rocket body
Debris
Shape & HBR
Box + 1 Pan, 10.1 m
Radar Cross Section
13.562 m², Large (>1 m²)

Expand to show TLE details & history
Last TLE update: 12 hours ago

TLE from 12 hours ago
0 STARLINK-1585
1 46117U 20057A   25341.24430180  .00055694  00000-0  10877-2 0  9994
2 46117  53.0533 339.4552 0009021  41.5600 318.6091 15.46918339292582
Epoch: 2025-12-07T05:51Z
TLE epoch observation values (Epoch: 2025-12-07T05:51:47.675Z)
Latitude
-0.00002°
Longitude
175.24607°
Altitude
422.04 km
Speed
7.662 km/s
True Right ascension
22h 37m 49s
True Declination
0° 00' 00"
Sunlit
Object was in daylight at epoch
Visualization orbit readout
Latitude
Unknown
Longitude
Unknown
Altitude
Unknown
Speed
Unknown
Apparent Right ascension
Unknown
Apparent Declination
Unknown
Sunlit
N/A
Visualization observer readout
Local Sidereal Time
16:21:12
Azimuth
Unknown
Elevation
Unknown
Doppler factor
Unknown
Orbital elements
Apogee altitude
432.161 km
Perigee altitude
419.885 km
Semi-major axis
6,804.16 km
Eccentricity
0.0009
Inclination
53.0533°
RAAN
339.4552°
Arg. of periapsis
41.56°
True anomaly
318.54069°
Mean anomaly
318.6091°
Eccentric anomaly
318.5749°
Mean motion
3.86706 °/min
Orbital period
93.09 mins
BSTAR
0.0010877
Loading maneuver chart data...
Computing Atmospheric mass density...

Documentation

Showing up to 5 results
|